Location: Twillingate Astronomical Observatory
(49.6173°N, 54.7580°W)
Time: 16:42:29
(UTC-02:-30)

Amateur Radio Satellites - All Passes

Search period start: 28 August 2015 16:12
Search period end: 29 August 2015 16:12
Location: Twillingate Astronomical Observatory, 49.6173°N, 54.7580°W

Satellite Date Start Highest point End Downlink Frequencies (MHz)
Time Altitude Azimuth
Cubesat XI-IV 28 Aug 16:20:58 16:21:49 10° 49° (NE) 16:22:54 437.490
MOZHAYETS 4 28 Aug 16:22:17 16:24:24 13° 85° (E) 16:26:44
SWISSCUBE 28 Aug 16:25:47 16:29:41 25° 298° (WNW) 16:33:31 437.505
STARS 28 Aug 16:27:54 16:32:15 49° 100° (E) 16:36:35 437.465
KKS-1 28 Aug 16:36:37 16:41:09 86° 284° (WNW) 16:45:39 437.445
Cosmos 2499 28 Aug 16:43:25 16:52:15 75° 264° (W) 17:00:33 435.465 / 435.565
HORYU 2 28 Aug 16:50:18 16:54:30 37° 263° (W) 16:58:43 437.375
ITUPSAT 1 28 Aug 17:03:15 17:05:58 15° 304° (NW) 17:08:32 437.325
CUTE-I 28 Aug 17:03:33 17:07:25 21° 58° (ENE) 17:11:25 437.470
GONETS M04 28 Aug 17:05:17 17:11:21 20° 284° (WNW) 17:17:04
BEESAT 3 28 Aug 17:10:29 17:14:35 89° 134° (SE) 17:18:42 437.485
BEESAT 2 28 Aug 17:16:43 17:20:50 80° 128° (SE) 17:24:58 435.950
RS-15 28 Aug 17:22:44 17:33:18 59° 118° (ESE) 17:44:25 29.354- 29.394
AIST 2 28 Aug 17:27:15 17:30:48 26° 117° (ESE) 17:34:24 435.215
ISS 28 Aug 17:27:40 17:30:01 18° 219° (SW) 17:32:18 145.825
JAS-2 28 Aug 17:32:34 17:36:56 15° 283° (WNW) 17:40:53 435.910
HO-68 28 Aug 17:43:07 17:44:08 10° 35° (NE) 17:45:25 435.675
Cubesat XI-IV 28 Aug 17:55:44 18:00:51 51° 68° (ENE) 18:06:01 437.490
MOZHAYETS 4 28 Aug 17:57:43 18:02:20 82° 284° (WNW) 18:06:53
AO-7 28 Aug 17:58:55 18:05:06 21° 274° (W) 18:10:58 29.400- 29.500
STARS 28 Aug 18:04:54 18:08:26 23° 298° (WNW) 18:11:51 437.465
CUBESAT XI-V 28 Aug 18:05:07 18:07:31 14° 86° (E) 18:10:08 437.345
KKS-1 28 Aug 18:14:51 18:17:08 14° 304° (WNW) 18:19:16 437.445
GOMX 1 28 Aug 18:22:32 18:23:28 11° 52° (NE) 18:24:36 467.674
AIST 1 28 Aug 18:26:36 18:27:36 11° 58° (ENE) 18:28:49
Cosmos 2499 28 Aug 18:38:18 18:44:00 19° 286° (WNW) 18:49:09 435.465 / 435.565
CUTE-I 28 Aug 18:41:43 18:47:02 73° 256° (WSW) 18:52:23 437.470
BEESAT 3 28 Aug 18:49:56 18:53:03 20° 330° (NNW) 18:56:07 437.485
DOVE 4 28 Aug 18:53:17 18:55:25 13° 54° (NE) 18:57:48 437.250
BEESAT 2 28 Aug 18:56:06 18:59:22 22° 329° (NNW) 19:02:34 435.950
AIST 2 28 Aug 19:05:02 19:09:11 48° 317° (NW) 19:13:19 435.215
BRITE-PL 28 Aug 19:08:38 19:12:38 36° 66° (ENE) 19:16:56 437.365/2234.400
Cosmos 2491 28 Aug 19:19:42 19:26:51 28° 58° (ENE) 19:34:12 435.465 / 435.565
HO-68 28 Aug 19:23:37 19:29:55 36° 57° (ENE) 19:36:19 435.675
RS-15 28 Aug 19:35:03 19:45:59 58° 325° (NW) 19:57:24 29.354- 29.394
CUTE 1.7 + AOD 2 28 Aug 19:35:05 19:38:05 19° 62° (ENE) 19:41:11 437.475
MOZHAYETS 4 28 Aug 19:36:42 19:38:52 13° 304° (WNW) 19:40:52
Cubesat XI-IV 28 Aug 19:36:43 19:41:15 27° 268° (W) 19:45:44 437.490
STRAND 1 28 Aug 19:37:54 19:42:22 30° 94° (E) 19:46:53 437.568
CUBESAT XI-V 28 Aug 19:40:58 19:45:36 78° 287° (WNW) 19:50:15 437.345
YUBILEINY 28 Aug 19:42:52 19:43:42 10° 67° (ENE) 19:45:12 435.215
CANX-2 28 Aug 19:47:47 19:51:22 27° 65° (ENE) 19:55:01 2200.000
GOMX 1 28 Aug 19:56:11 20:00:36 62° 72° (ENE) 20:05:23 467.674
O/OREOS (USA 219) 28 Aug 19:58:47 20:02:54 35° 108° (ESE) 20:07:06 437.305
AIST 1 28 Aug 20:01:46 20:06:06 82° 80° (E) 20:10:26
Oscar 11 28 Aug 20:03:59 20:05:15 11° 56° (NE) 20:06:42 145.826/435.025
CINEMA 3 28 Aug 20:04:12 20:08:01 26° 63° (ENE) 20:12:04 145.822/145.860
PRISM 28 Aug 20:08:20 20:12:11 38° 98° (E) 20:16:02 437.425
SEEDS 28 Aug 20:15:39 20:19:32 35° 68° (ENE) 20:23:26 437.485
CUBEBUG 2 28 Aug 20:20:21 20:23:30 19° 60° (ENE) 20:26:50 437.445
CUTE-I 28 Aug 20:26:23 20:28:12 11° 277° (W) 20:29:43 437.470
DOVE 4 28 Aug 20:27:46 20:32:20 77° 76° (ENE) 20:37:15 437.250
UWE-3 28 Aug 20:35:00 20:38:16 20° 61° (ENE) 20:41:42 435.000/436.395/437.385
ZACube-1 28 Aug 20:37:06 20:39:54 17° 59° (ENE) 20:42:50 437.345
BEESAT 2 28 Aug 20:38:18 20:38:52 10° 352° (N) 20:39:23 435.950
COMPASS 1 28 Aug 20:43:32 20:47:38 53° 72° (ENE) 20:51:45 437.405
FUNcube-1 28 Aug 20:43:55 20:46:58 18° 60° (ENE) 20:50:09 145.935
AIST 2 28 Aug 20:46:11 20:48:43 15° 339° (NNW) 20:51:12 435.215
BRITE-PL 28 Aug 20:47:31 20:51:18 28° 268° (W) 20:55:17 437.365/2234.400
AAUSAT CUBESAT 2 28 Aug 20:57:00 21:01:09 62° 73° (ENE) 21:05:19 437.432
CUTE 1.7 + AOD 2 28 Aug 21:09:24 21:13:38 56° 260° (W) 21:17:54 437.475
HO-68 28 Aug 21:10:18 21:17:22 61° 258° (WSW) 21:24:30 435.675
Cosmos 2491 28 Aug 21:16:09 21:24:56 83° 262° (W) 21:33:43 435.465 / 435.565
STRAND 1 28 Aug 21:16:54 21:21:44 43° 293° (WNW) 21:26:31 437.568
CUBESAT XI-V 28 Aug 21:20:16 21:22:21 13° 304° (NW) 21:24:17 437.345
CANX-2 28 Aug 21:23:08 21:27:10 37° 264° (W) 21:31:11 2200.000
DX 1 28 Aug 21:25:06 21:27:06 13° 57° (ENE) 21:29:16 434.975-435.025
YUBILEINY 28 Aug 21:30:10 21:38:27 50° 89° (E) 21:46:52 435.215
AISAT 28 Aug 21:33:16 21:34:26 11° 55° (NE) 21:35:47 437.250
GOMX 1 28 Aug 21:36:12 21:39:20 18° 274° (W) 21:42:29 467.674
Oscar 11 28 Aug 21:36:22 21:40:44 75° 73° (ENE) 21:45:06 145.826/435.025
O/OREOS (USA 219) 28 Aug 21:38:12 21:42:22 34° 308° (NW) 21:46:33 437.305
CINEMA 3 28 Aug 21:40:24 21:44:56 49° 262° (W) 21:49:42 145.822/145.860
AIST 1 28 Aug 21:41:33 21:43:10 12° 277° (W) 21:44:34
UKube-1 28 Aug 21:42:40 21:45:24 17° 59° (ENE) 21:48:16 .
PRISM 28 Aug 21:44:06 21:47:28 24° 296° (WNW) 21:50:46 437.425
DELFI C3 28 Aug 21:47:14 21:51:15 64° 73° (ENE) 21:55:17 145.870
RS-15 28 Aug 21:50:53 22:01:15 38° 357° (N) 22:12:04 29.354- 29.394
HUMSAT D 28 Aug 21:51:14 21:55:02 31° 67° (ENE) 21:58:55 437.325/437.525
SEEDS 28 Aug 21:51:43 21:55:23 27° 267° (W) 21:59:01 437.485
CUBEBUG 2 28 Aug 21:55:04 21:59:41 70° 258° (WSW) 22:04:28 437.445
VELOX 1 28 Aug 22:00:31 22:03:28 18° 60° (ENE) 22:06:32 145.980
DOVE 4 28 Aug 22:08:08 22:10:52 15° 276° (W) 22:13:30 437.250
UWE-3 28 Aug 22:09:49 22:14:23 63° 260° (W) 22:19:03 435.000/436.395/437.385
BEESAT 3 28 Aug 22:10:25 22:12:07 12° 17° (NNE) 22:13:54 437.485
ZACube-1 28 Aug 22:11:09 22:15:41 77° 256° (WSW) 22:20:20 437.345
BEESAT 2 28 Aug 22:17:00 22:18:39 12° 16° (NNE) 22:20:20 435.950
FUNcube-1 28 Aug 22:18:18 22:22:49 68° 259° (WSW) 22:27:26 145.935
COMPASS 1 28 Aug 22:20:39 22:23:39 18° 271° (W) 22:26:31 437.405
AIST 2 28 Aug 22:28:22 22:29:00 10° 2° (N) 22:29:38 435.215
AAUSAT CUBESAT 2 28 Aug 22:34:36 22:37:12 15° 272° (W) 22:39:40 437.432
ESTCUBE 1 28 Aug 22:39:53 22:43:47 31° 66° (ENE) 22:47:45 437.505/2401.250
50 SAT 28 Aug 22:51:38 22:55:31 55° 72° (ENE) 22:59:24 437.505
DX 1 28 Aug 22:58:24 23:02:45 89° 75° (ENE) 23:07:07 434.975-435.025
HO-68 28 Aug 23:04:02 23:06:52 12° 281° (W) 23:09:12 435.675
UNISAT 6 28 Aug 23:05:36 23:09:38 29° 93° (E) 23:13:36 437.425
AISAT 28 Aug 23:05:52 23:10:15 70° 73° (ENE) 23:14:41 437.250
TISAT 1 28 Aug 23:12:43 23:14:19 12° 57° (ENE) 23:16:04 437.305
Cosmos 2491 28 Aug 23:14:32 23:20:37 21° 284° (WNW) 23:26:20 435.465 / 435.565
Oscar 11 28 Aug 23:15:09 23:17:29 14° 274° (W) 23:19:40 145.826/435.025
UKube-1 28 Aug 23:16:48 23:21:06 67° 257° (WSW) 23:25:25 .
CUBEBUG 1 28 Aug 23:17:48 23:22:00 55° 71° (ENE) 23:26:16 437.445
POLYITAN 1 28 Aug 23:21:09 23:23:47 16° 88° (E) 23:26:32 437.675
Cosmos 2504 28 Aug 23:22:02 23:29:11 37° 84° (E) 23:36:48 435.465 / 435.565
DELFI C3 28 Aug 23:24:30 23:26:46 14° 272° (W) 23:28:54 145.870
POPSAT HIP 1 28 Aug 23:25:05 23:27:53 17° 89° (E) 23:30:47 437.405
HUMSAT D 28 Aug 23:26:49 23:30:45 32° 265° (W) 23:34:39 437.325/437.525
YUBILEINY 28 Aug 23:27:03 23:35:28 46° 292° (WNW) 23:43:52 435.215
SPROUT 28 Aug 23:28:03 23:31:33 25° 64° (ENE) 23:35:09 437.525
DUCHIFAT 1 28 Aug 23:28:45 23:31:38 18° 89° (E) 23:34:37 145.980
VELOX 1 28 Aug 23:35:14 23:39:36 64° 258° (WSW) 23:44:01 145.980
TIGRISAT 28 Aug 23:35:22 23:39:56 52° 99° (E) 23:44:22 435.000
QB50P2 28 Aug 23:40:36 23:44:08 24° 93° (E) 23:47:43 145.880/145.840
NANOSAT C BR1 28 Aug 23:44:27 23:48:02 25° 93° (E) 23:51:38 145.865
BEESAT 3 28 Aug 23:47:26 23:51:12 35° 40° (NE) 23:54:56 437.485
ANTELSAT 28 Aug 23:50:53 23:55:34 75° 102° (ESE) 00:00:06 437.575/2403.000
BUGSAT 1 28 Aug 23:51:59 23:55:03 20° 91° (E) 23:58:13 437.445
ZACube-1 28 Aug 23:52:16 23:52:57 10° 278° (W) 23:53:23 437.345
BEESAT 2 28 Aug 23:54:09 23:57:53 33° 39° (NE) 00:01:35 435.950
QB50P1 28 Aug 23:56:23 00:00:17 33° 96° (E) 00:04:13 145.935-145.965
AUBIESAT-1 28 Aug 23:57:30 00:01:35 51° 105° (ESE) 00:05:19 437.475
CUSAT 1 28 Aug 23:58:02 00:00:16 15° 79° (E) 00:03:00 437.405
M-CUBED/EXP-1 PRIME 28 Aug 23:59:15 00:03:29 64° 107° (ESE) 00:07:20 437.505
RS-15 29 Aug 00:05:39 00:16:52 51° 29° (NNE) 00:28:37 29.354- 29.394
AIST 2 29 Aug 00:06:16 00:09:11 18° 26° (NNE) 00:12:08 435.215
ESTCUBE 1 29 Aug 00:16:28 00:20:36 35° 264° (W) 00:24:43 437.505/2401.250
SWISSCUBE 29 Aug 00:22:59 00:25:40 15° 57° (ENE) 00:28:29 437.505
50 SAT 29 Aug 00:27:54 00:30:24 16° 271° (W) 00:32:48 437.505
DX 1 29 Aug 00:38:12 00:39:44 11° 275° (W) 00:41:02 434.975-435.025
UNISAT 6 29 Aug 00:42:10 00:46:30 38° 293° (WNW) 00:50:42 437.425
AISAT 29 Aug 00:44:46 00:47:23 15° 272° (W) 00:49:51 437.250
TISAT 1 29 Aug 00:45:13 00:49:26 84° 74° (ENE) 00:53:41 437.305
CUBEBUG 1 29 Aug 00:55:43 00:58:45 18° 271° (W) 01:01:42 437.445
POLYITAN 1 29 Aug 00:55:50 01:00:09 63° 288° (WNW) 01:04:24 437.675
ITUPSAT 1 29 Aug 00:58:14 01:02:08 26° 63° (ENE) 01:06:09 437.325
POPSAT HIP 1 29 Aug 00:59:54 01:04:09 59° 289° (WNW) 01:08:24 437.405
SPROUT 29 Aug 01:03:24 01:07:28 40° 263° (W) 01:11:33 437.525
DUCHIFAT 1 29 Aug 01:03:35 01:07:49 56° 289° (WNW) 01:12:00 145.980
TIGRISAT 29 Aug 01:12:41 01:16:22 23° 298° (WNW) 01:19:54 435.000
Cosmos 2504 29 Aug 01:12:58 01:21:02 61° 286° (WNW) 01:29:33 435.465 / 435.565
QB50P2 29 Aug 01:16:07 01:20:10 40° 292° (WNW) 01:24:11 145.880/145.840
NANOSAT C BR1 29 Aug 01:19:58 01:23:58 38° 292° (WNW) 01:27:57 145.865
BEESAT 3 29 Aug 01:25:24 01:29:08 35° 239° (WSW) 01:32:46 437.485
BUGSAT 1 29 Aug 01:26:41 01:30:49 50° 289° (WNW) 01:34:55 437.445
ANTELSAT 29 Aug 01:28:46 01:31:48 17° 301° (WNW) 01:34:41 437.575/2403.000
YUBILEINY 29 Aug 01:31:32 01:35:22 13° 320° (NW) 01:38:46 435.215
BEESAT 2 29 Aug 01:32:09 01:35:59 39° 239° (WSW) 01:39:44 435.950
QB50P1 29 Aug 01:32:19 01:36:06 30° 294° (WNW) 01:39:49 145.935-145.965
AUBIESAT-1 29 Aug 01:32:47 01:35:57 20° 305° (NW) 01:38:51 437.475
BEESAT 29 Aug 01:32:52 01:37:29 51° 70° (ENE) 01:42:08 436.000
M-CUBED/EXP-1 PRIME 29 Aug 01:34:49 01:37:47 18° 307° (NW) 01:40:30 437.505
CUSAT 1 29 Aug 01:38:02 01:41:52 61° 287° (WNW) 01:47:02 437.405
DANDE 29 Aug 01:41:03 01:44:27 89° 277° (W) 01:49:04 436.750
AIST 2 29 Aug 01:44:17 01:48:30 70° 48° (NE) 01:52:38 435.215
STARS 29 Aug 01:55:51 01:57:23 12° 55° (NE) 01:59:06 437.465
SWISSCUBE 29 Aug 01:58:07 02:02:55 90° 273° (W) 02:07:43 437.505
KKS-1 29 Aug 02:03:45 02:07:01 21° 61° (ENE) 02:10:24 437.445
RS-15 29 Aug 02:18:34 02:30:17 75° 236° (WSW) 02:42:24 29.354- 29.394
GONETS M04 29 Aug 02:19:02 02:25:32 25° 79° (E) 02:32:20
Oscar 19 29 Aug 02:23:46 02:28:48 48° 98° (E) 02:33:50 437.125/150
TISAT 1 29 Aug 02:24:20 02:25:53 11° 275° (W) 02:27:13 437.305
SO-50 29 Aug 02:33:10 02:37:46 45° 121° (ESE) 02:42:29 436.795
ITUPSAT 1 29 Aug 02:35:13 02:39:50 47° 261° (W) 02:44:28 437.325
Gurwin Techsat 1B 29 Aug 02:37:49 02:41:57 23° 90° (E) 02:46:10 435.225
JAS-2 29 Aug 02:49:27 02:54:24 20° 81° (E) 02:59:16 435.910
PCSat 29 Aug 03:00:15 03:05:18 42° 116° (ESE) 03:10:25 145.827
Cosmos 2504 29 Aug 03:10:16 03:15:32 17° 313° (NW) 03:20:35 435.465 / 435.565
BEESAT 29 Aug 03:11:49 03:15:38 23° 269° (W) 03:19:23 436.000
ITAMSAT 1 29 Aug 03:15:12 03:20:00 37° 96° (E) 03:24:49 435.822/435.867
AIST 2 29 Aug 03:23:50 03:26:36 17° 247° (WSW) 03:29:14 435.215
DANDE 29 Aug 03:27:49 03:28:57 11° 312° (NW) 03:29:59 436.750
MOZHAYETS 4 29 Aug 03:27:55 03:31:26 22° 62° (ENE) 03:35:03
STARS 29 Aug 03:28:42 03:33:07 75° 73° (ENE) 03:37:34 437.465
Cosmos 2499 29 Aug 03:34:24 03:40:02 21° 75° (ENE) 03:46:10 435.465 / 435.565
KKS-1 29 Aug 03:38:56 03:43:19 55° 259° (W) 03:47:45 437.445
SWISSCUBE 29 Aug 03:39:19 03:41:33 13° 275° (W) 03:43:33 437.505
AO-7 29 Aug 03:59:55 04:06:22 25° 89° (E) 04:13:02 29.400- 29.500
Oscar 19 29 Aug 04:03:29 04:07:59 30° 298° (WNW) 04:12:24 437.125/150
GONETS M04 29 Aug 04:12:46 04:21:28 83° 280° (W) 04:30:17
SO-50 29 Aug 04:13:50 04:18:25 39° 322° (NW) 04:23:05 436.795
Gurwin Techsat 1B 29 Aug 04:17:07 04:22:22 60° 290° (WNW) 04:27:35 435.225
O/OREOS (USA 219) 29 Aug 04:25:07 04:28:52 24° 47° (NE) 04:32:39 437.305
RS-15 29 Aug 04:32:24 04:41:04 23° 259° (W) 04:49:20 29.354- 29.394
JAS-2 29 Aug 04:33:17 04:40:45 89° 105° (ESE) 04:47:20 435.910
HORYU 2 29 Aug 04:36:56 04:40:53 30° 95° (E) 04:44:51 437.375
PCSat 29 Aug 04:43:38 04:48:46 42° 316° (NW) 04:53:56 145.827
ITAMSAT 1 29 Aug 04:54:47 04:59:31 36° 295° (WNW) 05:04:12 435.822/435.867
MOZHAYETS 4 29 Aug 05:03:50 05:08:22 53° 261° (W) 05:12:54
STARS 29 Aug 05:07:44 05:10:10 14° 273° (W) 05:12:25 437.465
CUBESAT XI-V 29 Aug 05:12:23 05:15:59 24° 63° (ENE) 05:19:40 437.345
STRAND 1 29 Aug 05:22:28 05:24:35 13° 53° (NE) 05:26:54 437.568
Cosmos 2499 29 Aug 05:23:27 05:31:54 81° 97° (E) 05:40:50 435.465 / 435.565
AO-7 29 Aug 05:51:55 06:00:17 85° 291° (WNW) 06:08:35 29.400- 29.500
SO-50 29 Aug 05:57:06 06:00:17 17° 346° (NNW) 06:03:27 436.795
Gurwin Techsat 1B 29 Aug 05:59:18 06:01:25 12° 309° (NW) 06:03:18 435.225
O/OREOS (USA 219) 29 Aug 06:04:08 06:08:40 57° 248° (WSW) 06:13:10 437.305
Cubesat XI-IV 29 Aug 06:09:58 06:12:34 14° 85° (E) 06:15:26 437.490
GONETS M04 29 Aug 06:13:14 06:19:57 23° 306° (NW) 06:26:29
HORYU 2 29 Aug 06:13:28 06:17:35 35° 293° (WNW) 06:21:37 437.375
JAS-2 29 Aug 06:19:06 06:24:54 25° 307° (NW) 06:30:06 435.910
PCSat 29 Aug 06:30:21 06:33:41 16° 341° (NNW) 06:36:57 145.827
VERMONT LUNAR 29 Aug 06:33:28 06:34:42 12° 168° (SSE) 06:35:59 437.305
CUBESAT XI-V 29 Aug 06:48:42 06:53:10 49° 261° (W) 06:57:40 437.345
CUTE-I 29 Aug 06:54:33 06:59:16 32° 94° (E) 07:04:03 437.470
STRAND 1 29 Aug 06:57:54 07:02:57 67° 72° (ENE) 07:08:03 437.568
PRISM 29 Aug 07:02:14 07:06:12 51° 71° (ENE) 07:10:12 437.425
BRITE-PL 29 Aug 07:10:15 07:11:39 11° 82° (E) 07:13:25 437.365/2234.400
Cosmos 2499 29 Aug 07:18:50 07:26:13 30° 302° (WNW) 07:33:41 435.465 / 435.565
YUBILEINY 29 Aug 07:34:31 07:42:11 32° 61° (ENE) 07:49:58 435.215
SO-50 29 Aug 07:39:46 07:42:42 15° 10° (N) 07:45:40 436.795
AO-7 29 Aug 07:45:31 07:52:09 27° 313° (NW) 07:58:36 29.400- 29.500
Cubesat XI-IV 29 Aug 07:48:13 07:53:35 86° 102° (ESE) 07:58:56 437.490
GOMX 1 29 Aug 07:54:01 07:57:24 17° 86° (E) 08:01:02 467.674
VERMONT LUNAR 29 Aug 08:08:43 08:10:28 14° 184° (S) 08:12:12 437.305
PCSat 29 Aug 08:17:03 08:19:25 13° 7° (N) 08:21:48 145.827
DOVE 4 29 Aug 08:22:55 08:26:34 19° 87° (E) 08:30:23 437.250
Cosmos 2491 29 Aug 08:28:27 08:34:56 25° 79° (E) 08:41:40 435.465 / 435.565
HO-68 29 Aug 08:33:47 08:39:06 22° 88° (E) 08:44:37 435.675
CUTE-I 29 Aug 08:34:28 08:39:30 43° 294° (WNW) 08:44:29 437.470
AIST 1 29 Aug 08:35:49 08:39:43 37° 92° (E) 08:43:41
STRAND 1 29 Aug 08:39:01 08:42:43 19° 271° (W) 08:46:17 437.568
PRISM 29 Aug 08:39:06 08:41:58 18° 269° (W) 08:44:44 437.425
BRITE-PL 29 Aug 08:45:50 08:51:10 67° 101° (E) 08:56:48 437.365/2234.400
CUTE 1.7 + AOD 2 29 Aug 08:50:57 08:53:55 19° 89° (E) 08:56:58 437.475
Cosmos 2504 29 Aug 09:02:55 09:08:21 18° 49° (NE) 09:13:58 435.465 / 435.565
CANX-2 29 Aug 09:04:00 09:07:38 27° 93° (E) 09:11:17 2200.000
TIGRISAT 29 Aug 09:04:28 09:06:30 13° 56° (NE) 09:08:43 435.000
AUBIESAT-1 29 Aug 09:14:37 09:18:15 23° 56° (NE) 09:21:55 437.475
M-CUBED/EXP-1 PRIME 29 Aug 09:16:28 09:20:26 27° 58° (ENE) 09:24:25 437.505
ANTELSAT 29 Aug 09:19:03 09:22:04 18° 59° (ENE) 09:25:14 437.575/2403.000
SO-50 29 Aug 09:20:17 09:24:44 31° 34° (NNE) 09:29:09 436.795
Oscar 11 29 Aug 09:22:35 09:22:44 10° 83° (E) 09:23:07 145.826/435.025
PHONESAT 2.4 29 Aug 09:29:08 09:31:28 17° 175° (S) 09:33:48 2401.200-2431.200
Cubesat XI-IV 29 Aug 09:29:28 09:33:05 18° 304° (NW) 09:36:35 437.490
GOMX 1 29 Aug 09:30:48 09:36:11 84° 285° (WNW) 09:41:42 467.674
CINEMA 3 29 Aug 09:30:50 09:35:22 33° 94° (E) 09:39:52 145.822/145.860
SEEDS 29 Aug 09:30:56 09:34:50 36° 96° (E) 09:38:44 437.485
YUBILEINY 29 Aug 09:31:07 09:39:57 73° 265° (W) 09:48:41 435.215
AO-7 29 Aug 09:41:23 09:42:08 10° 339° (NNW) 09:42:39 29.400- 29.500
CUBEBUG 2 29 Aug 09:42:35 09:46:04 20° 89° (E) 09:49:37 437.445
UWE-3 29 Aug 09:56:03 09:59:34 21° 90° (E) 10:03:06 435.000/436.395/437.385
ZACube-1 29 Aug 09:56:36 09:59:26 17° 87° (E) 10:02:24 437.345
COMPASS 1 29 Aug 09:57:56 10:02:03 55° 100° (E) 10:06:07 437.405
DOVE 4 29 Aug 09:59:36 10:04:53 74° 287° (WNW) 10:10:12 437.250
PCSat 29 Aug 10:00:28 10:04:51 24° 32° (NNE) 10:09:16 145.827
FUNcube-1 29 Aug 10:03:14 10:06:22 19° 88° (E) 10:09:33 145.935
UNISAT 6 29 Aug 10:08:17 10:12:43 43° 68° (ENE) 10:17:12 437.425
ISS 29 Aug 10:09:45 10:11:28 14° 138° (SE) 10:13:15 145.825
AAUSAT CUBESAT 2 29 Aug 10:10:54 10:15:02 64° 101° (E) 10:19:08 437.432
AIST 1 29 Aug 10:13:58 10:17:31 24° 292° (WNW) 10:21:01
POLYITAN 1 29 Aug 10:18:08 10:21:24 22° 63° (ENE) 10:24:46 437.675
HO-68 29 Aug 10:20:33 10:27:48 85° 289° (WNW) 10:35:01 435.675
POPSAT HIP 1 29 Aug 10:21:53 10:25:13 23° 63° (ENE) 10:28:39 437.405
Cosmos 2491 29 Aug 10:22:08 10:30:52 84° 279° (W) 10:39:39 435.465 / 435.565
CUSAT 1 29 Aug 10:24:58 10:31:15 32° 63° (ENE) 10:38:26 437.405
DUCHIFAT 1 29 Aug 10:25:06 10:28:27 24° 64° (ENE) 10:31:54 145.980
BRITE-PL 29 Aug 10:25:06 10:29:19 24° 298° (WNW) 10:33:36 437.365/2234.400
CUTE 1.7 + AOD 2 29 Aug 10:26:01 10:30:10 51° 289° (WNW) 10:34:15 437.475
DANDE 29 Aug 10:30:40 10:36:12 26° 62° (ENE) 10:42:46 436.750
QB50P2 29 Aug 10:37:30 10:41:17 32° 67° (ENE) 10:45:09 145.880/145.840
TIGRISAT 29 Aug 10:37:50 10:42:31 76° 73° (ENE) 10:47:15 435.000
CANX-2 29 Aug 10:39:45 10:43:38 35° 292° (WNW) 10:47:27 2200.000
NANOSAT C BR1 29 Aug 10:40:56 10:44:44 33° 67° (ENE) 10:48:37 145.865
DX 1 29 Aug 10:44:31 10:45:50 11° 85° (E) 10:47:22 434.975-435.025
BUGSAT 1 29 Aug 10:46:13 10:49:29 24° 64° (ENE) 10:52:52 437.445
AUBIESAT-1 29 Aug 10:47:53 10:52:37 62° 254° (WSW) 10:57:16 437.475
M-CUBED/EXP-1 PRIME 29 Aug 10:50:15 10:54:57 52° 255° (WSW) 10:59:36 437.505
QB50P1 29 Aug 10:53:02 10:57:03 44° 69° (ENE) 11:01:09 145.935-145.965
ANTELSAT 29 Aug 10:53:38 10:58:20 76° 257° (WSW) 11:03:06 437.575/2403.000
Cosmos 2504 29 Aug 10:54:06 11:02:41 65° 75° (ENE) 11:10:52 435.465 / 435.565
Oscar 11 29 Aug 10:55:22 10:59:44 84° 103° (ESE) 11:04:02 145.826/435.025
DELFI C3 29 Aug 10:56:41 11:00:40 59° 101° (E) 11:04:35 145.870
SO-50 29 Aug 11:00:42 11:05:38 63° 235° (SW) 11:10:26 436.795
UKube-1 29 Aug 11:01:01 11:03:29 15° 88° (E) 11:06:06 .
HUMSAT D 29 Aug 11:06:10 11:09:58 31° 94° (E) 11:13:45 437.325/437.525
PHONESAT 2.4 29 Aug 11:06:35 11:08:38 15° 192° (SSW) 11:10:40 2401.200-2431.200
SEEDS 29 Aug 11:06:58 11:10:30 26° 295° (WNW) 11:13:58 437.485
CINEMA 3 29 Aug 11:07:55 11:12:36 39° 293° (WNW) 11:17:12 145.822/145.860
GOMX 1 29 Aug 11:10:14 11:13:38 17° 303° (WNW) 11:16:56 467.674
CUBEBUG 2 29 Aug 11:18:28 11:23:09 56° 289° (WNW) 11:27:42 437.445
VELOX 1 29 Aug 11:22:02 11:25:03 18° 90° (E) 11:28:12 145.980
YUBILEINY 29 Aug 11:29:52 11:35:20 18° 286° (WNW) 11:40:20 435.215
ZACube-1 29 Aug 11:31:46 11:36:19 66° 287° (WNW) 11:40:44 437.345
UWE-3 29 Aug 11:31:53 11:36:26 52° 289° (WNW) 11:40:51 435.000/436.395/437.385
COMPASS 1 29 Aug 11:34:24 11:37:22 19° 298° (WNW) 11:40:12 437.405
FUNcube-1 29 Aug 11:38:37 11:43:07 58° 288° (WNW) 11:47:29 145.935
DOVE 4 29 Aug 11:38:56 11:41:51 15° 304° (NW) 11:44:36 437.250
PCSat 29 Aug 11:43:34 11:49:03 87° 60° (ENE) 11:54:29 145.827
ISS 29 Aug 11:44:10 11:47:24 62° 155° (SSE) 11:50:37 145.825
UNISAT 6 29 Aug 11:45:39 11:49:39 27° 268° (W) 11:53:37 437.425
AAUSAT CUBESAT 2 29 Aug 11:47:33 11:50:12 16° 299° (WNW) 11:52:44 437.432
POLYITAN 1 29 Aug 11:52:53 11:57:01 47° 261° (W) 12:01:13 437.675
POPSAT HIP 1 29 Aug 11:56:47 12:00:52 44° 262° (W) 12:04:59 437.405
50 SAT 29 Aug 11:56:47 12:00:33 44° 99° (E) 12:04:15 437.505
DUCHIFAT 1 29 Aug 12:00:01 12:04:03 42° 262° (W) 12:08:08 145.980
ESTCUBE 1 29 Aug 12:04:19 12:08:26 35° 96° (E) 12:12:35 437.505/2401.250
CUSAT 1 29 Aug 12:07:05 12:14:20 72° 262° (W) 12:22:31 437.405
Oscar 19 29 Aug 12:07:48 12:11:18 19° 57° (ENE) 12:14:57 437.125/150
HO-68 29 Aug 12:09:14 12:14:42 24° 310° (NW) 12:20:00 435.675
DANDE 29 Aug 12:13:02 12:19:59 85° 259° (W) 12:28:21 436.750
QB50P2 29 Aug 12:13:24 12:17:12 30° 266° (W) 12:20:58 145.880/145.840
NANOSAT C BR1 29 Aug 12:16:52 12:20:35 29° 265° (W) 12:24:19 145.865
TIGRISAT 29 Aug 12:17:01 12:19:52 15° 274° (W) 12:22:33 435.000
DX 1 29 Aug 12:18:24 12:22:49 90° 288° (WNW) 12:27:12 434.975-435.025
BUGSAT 1 29 Aug 12:20:57 12:24:47 38° 263° (W) 12:28:40 437.445
GONETS M04 29 Aug 12:21:44 12:27:08 18° 48° (NE) 12:32:53
Cosmos 2491 29 Aug 12:22:33 12:29:21 23° 306° (NW) 12:35:53 435.465 / 435.565
Gurwin Techsat 1B 29 Aug 12:27:51 12:29:07 11° 50° (NE) 12:30:38 435.225
AISAT 29 Aug 12:28:24 12:32:54 78° 104° (ESE) 12:37:23 437.250
TISAT 1 29 Aug 12:28:30 12:28:35 10° 84° (E) 12:28:54 437.305
QB50P1 29 Aug 12:29:46 12:33:09 22° 269° (W) 12:36:28 145.935-145.965
DELFI C3 29 Aug 12:32:44 12:35:19 17° 299° (WNW) 12:37:49 145.870
Oscar 11 29 Aug 12:33:00 12:35:21 14° 302° (WNW) 12:37:32 145.826/435.025
ANTELSAT 29 Aug 12:35:00 12:36:02 10° 278° (W) 12:36:46 437.575/2403.000
UKube-1 29 Aug 12:35:47 12:40:08 68° 288° (WNW) 12:44:26 .
CUBEBUG 1 29 Aug 12:38:13 12:42:36 62° 101° (ESE) 12:47:00 437.445
HUMSAT D 29 Aug 12:41:52 12:45:42 31° 293° (WNW) 12:49:25 437.325/437.525
SO-50 29 Aug 12:44:29 12:45:19 10° 253° (WSW) 12:45:52 436.795
SPROUT 29 Aug 12:45:38 12:49:16 26° 93° (E) 12:52:57 437.525
Cosmos 2504 29 Aug 12:46:55 12:54:26 34° 277° (W) 13:01:29 435.465 / 435.565
VELOX 1 29 Aug 12:57:37 13:02:01 59° 289° (WNW) 13:06:24 145.980
ITAMSAT 1 29 Aug 13:00:45 13:03:48 16° 55° (NE) 13:07:01 435.822/435.867
JAS-2 29 Aug 13:06:12 13:11:25 21° 49° (NE) 13:16:52 435.910
ZACube-1 29 Aug 13:10:39 13:11:50 11° 306° (NW) 13:12:48 437.345
AO-7 29 Aug 13:15:17 13:20:07 18° 37° (NE) 13:25:12 29.400- 29.500
Cosmos 2499 29 Aug 13:18:50 13:21:40 12° 38° (NE) 13:24:55 435.465 / 435.565
ISS 29 Aug 13:20:36 13:23:50 59° 355° (N) 13:27:04 145.825
PCSat 29 Aug 13:28:15 13:31:50 18° 253° (WSW) 13:35:13 145.827
50 SAT 29 Aug 13:31:54 13:34:48 20° 297° (WNW) 13:37:36 437.505
ESTCUBE 1 29 Aug 13:41:17 13:45:15 31° 294° (WNW) 13:49:11 437.505/2401.250
Oscar 19 29 Aug 13:44:55 13:50:06 80° 256° (WSW) 13:55:21 437.125/150
CUSAT 1 29 Aug 13:51:17 13:56:06 18° 278° (W) 14:00:52 437.405
SWISSCUBE 29 Aug 13:55:03 13:58:05 17° 88° (E) 14:01:16 437.505
DX 1 29 Aug 13:56:12 13:58:28 14° 303° (WNW) 14:00:34 434.975-435.025
DANDE 29 Aug 13:57:21 14:02:38 22° 274° (W) 14:08:12 436.750
TISAT 1 29 Aug 14:00:49 14:05:07 84° 102° (ESE) 14:09:24 437.305
Gurwin Techsat 1B 29 Aug 14:02:56 14:08:04 54° 69° (ENE) 14:13:17 435.225
AISAT 29 Aug 14:06:11 14:08:57 16° 302° (WNW) 14:11:35 437.250
UKube-1 29 Aug 14:14:33 14:15:30 10° 306° (NW) 14:16:15 .
CUBEBUG 1 29 Aug 14:15:27 14:18:34 19° 299° (WNW) 14:21:35 437.445
GONETS M04 29 Aug 14:17:31 14:26:15 64° 74° (ENE) 14:35:01
SPROUT 29 Aug 14:21:25 14:25:28 38° 292° (WNW) 14:29:29 437.525
ITUPSAT 1 29 Aug 14:31:20 14:35:36 32° 95° (E) 14:39:53 437.325
ITAMSAT 1 29 Aug 14:37:27 14:42:38 86° 77° (ENE) 14:47:52 435.822/435.867
JAS-2 29 Aug 14:47:36 14:55:13 68° 70° (ENE) 15:03:02 435.910
ISS 29 Aug 14:57:08 15:00:24 79° 15° (NNE) 15:03:40 145.825
AO-7 29 Aug 15:03:15 15:11:12 52° 60° (ENE) 15:19:13 29.400- 29.500
BEESAT 29 Aug 15:06:10 15:10:56 67° 103° (ESE) 15:15:39 436.000
Cosmos 2499 29 Aug 15:09:49 15:18:04 42° 66° (ENE) 15:25:57 435.465 / 435.565
STARS 29 Aug 15:16:57 15:17:28 10° 84° (E) 15:18:15 437.465
BEESAT 3 29 Aug 15:23:11 15:25:09 14° 112° (ESE) 15:27:17 437.485
KKS-1 29 Aug 15:26:08 15:29:32 21° 91° (E) 15:33:00 437.445
Oscar 19 29 Aug 15:28:10 15:30:26 12° 277° (W) 15:32:27 437.125/150
BEESAT 2 29 Aug 15:31:18 15:33:01 13° 112° (ESE) 15:34:54 435.950
SWISSCUBE 29 Aug 15:31:45 15:36:30 69° 288° (WNW) 15:41:13 437.505
TISAT 1 29 Aug 15:38:02 15:40:19 14° 302° (WNW) 15:42:28 437.305
HORYU 2 29 Aug 15:39:03 15:43:22 48° 69° (ENE) 15:47:43 437.375
Gurwin Techsat 1B 29 Aug 15:44:00 15:48:25 26° 269° (W) 15:52:46 435.225
